{"data":{"norad_id":68056,"epoch":"2026-09-20T03:44:24.700416Z","epoch_age_seconds":89307,"freshness":"FRESH","line1":"1 68056U 26041S   26263.15584144  .00017471  00000+0  52709-3 0  9994","line2":"2 68056  53.1605 221.5072 0001226  53.9839 306.1277 15.34394767 31238","mean_motion":15.34394767,"eccentricity":0.0001226,"inclination_deg":53.1605,"raan_deg":221.5072,"arg_perigee_deg":53.9839,"mean_anomaly_deg":306.1277,"bstar":0.00052709,"rev_number":3123,"period_min":93.84807814585,"perigee_km":461.88010490979,"apogee_km":463.55748275044,"semimajor_km":6840.8557938301,"source":"CELESTRAK","updated_at":"2026-09-20T09:00:43.750258Z"}}